Tracking 30995 objects as of 5-Jul-2025
HD Live streaming from Space Station
objects crossing your sky now

OPS 6073 (DMSP 4A F2)

Track OPS 6073 (DMSP 4A F2) now!
10-day predictions
OPS 6073 (DMSP 4A F2) is classified as:


NORAD ID: 2669
Int'l Code: 1967-010A
Perigee: 770.9 km
Apogee: 839.9 km
Inclination: 99.1 °
Period: 100.8 minutes
Semi major axis: 7176 km
RCS: 0.6644 m2 (medium)
Launch date: February 8, 1967
Source: United States (US)
Launch site: AIR FORCE WESTERN TEST RANGE (AFWTR)
Your satellite tracking list
SL-8 DEB
Track 1 satellite(s)




NASA's NSSDC Master Catalog

Two Line Element Set (TLE):
1 02669U 67010A   25185.94939866  .00000106  00000-0  61504-4 0  9999
2 02669  99.0808 169.2528 0048071 305.1567  54.5113 14.28049709 34773
Source of the keplerian elements: AFSPC